KINDAKUN ROCKS(AUT) current weather conditions

sailwx.info

Wind from 310 at 17 knots gusting 21

Air temperature 6.5° C
Dewpoint 3.9° C

Last reported at 2017-Oct-17 10:00 UTC.
Time now 2017-Oct-17 11:58 UTC

Location: N 53°19' W 132°46'.
View on Google Maps.

See reports from other nearby stations

  
Tides and Currents Weather Stations Pressure Air Temp Water Temp Dewpoint Dewpoint Depression Visibility Wind Speed Wind Dir Waves Ship Positions
date/time (UTC)wind fromknots sea level pressurealtimeterstation pressurevisibilityair tempwater tempwave heightnotes
2017-Oct-17 10:00 310 17 gusting 21 6.5
2017-Oct-17 09:00 300 14 9.4
2017-Oct-17 08:00 330 11 9.2
2017-Oct-17 07:00 340 15 9.0
2017-Oct-17 06:00 340 17 8.0
2017-Oct-17 05:00 260 2 8.2
2017-Oct-17 04:00 140 6 8.0
2017-Oct-17 03:00 110 4 8.4
2017-Oct-17 02:00 8.7
2017-Oct-17 01:00 020 0 8.6
2017-Oct-17 00:00 320 7 9.5
2017-Oct-16 23:00 270 1 10.0
2017-Oct-16 22:00 300 4 9.5
2017-Oct-16 21:00 180 1 10.4
2017-Oct-16 20:00 340 1 10.2
2017-Oct-16 19:00 340 0 9.9
2017-Oct-16 18:00 300 6 9.6
2017-Oct-16 17:00 160 2 9.0
2017-Oct-16 16:00 350 0 8.7
2017-Oct-16 15:00 110 2 8.3
2017-Oct-16 14:00 100 1 8.8
2017-Oct-16 13:00 290 0 9.0
2017-Oct-16 12:00 130 5 9.0
2017-Oct-16 11:00 110 6 8.9
2017-Oct-16 10:00 160 21 gusting 27 8.7
2017-Oct-16 09:00 170 22 8.9
2017-Oct-16 08:00 190 19 gusting 25 9.7
2017-Oct-16 07:00 210 13 gusting 28 10.0
2017-Oct-16 06:00 190 13 11.4
2017-Oct-16 05:00 190 9 10.9
2017-Oct-16 04:00 210 8 10.8
2017-Oct-16 03:00 240 13 11.0
2017-Oct-16 02:00 240 15 11.3
2017-Oct-16 01:00 230 17 10.7
2017-Oct-16 00:00 240 19 11.7
2017-Oct-15 23:00 250 18 11.7
2017-Oct-15 22:00 240 20 11.8
2017-Oct-15 21:00 230 20 11.7
2017-Oct-15 20:00 230 19 gusting 24 12.1
2017-Oct-15 19:00 220 18 gusting 22 11.8
2017-Oct-15 18:00 240 19 11.9
2017-Oct-15 17:00 230 14 11.3
2017-Oct-15 16:00 230 13 12.0
2017-Oct-15 15:00 210 9 gusting 15 12.0
2017-Oct-15 14:00 250 6 11.8
2017-Oct-15 12:00 230 8 12.1
2017-Oct-15 11:00 230 18 gusting 24 12.0